Погода в Чернокозово

Россия / Чеченская Республика     43°40′15″N   45°21′38″E
темп.,
°C
ветер,
м/с
пор.,
м/с
влажн.,
%
обл.,
%
осадки,
мм/ч
давл.,
гПа
погр.,
м
17 августа, ср
ср1700:00+28з45410 0.0 100969
03:00+25з48500 0.0 1009123
06:00+25з48620 0.0 1010210
09:00+32сз44400 0.0 1009981
12:00+37ссв33280 0.0 10082092
15:00+39св43230 0.0 10062750
18:00+37св33240 0.0 10051550
21:00+32всв48310 0.0 1006130
18 августа, чт
чт1800:00+27вюв33440 0.0 100626
03:00+26зюз11490 0.0 100611
06:00+26зсз344716 0.0 100684
09:00+34зсз442911 0.0 1006775
12:00+38ссв332281 0.0 10042111
15:00+40св43200 0.0 10023034
18:00+38всв66210 0.0 1002702
21:00+27в47440 0.0 1004142
19 августа, пт
пт1900:00+24всв225499 0.0 100419
03:00+24з345596 0.0 100476
06:00+24з5854100 0.0 1006298
09:00+28зсз6739100 0.0 1006805
12:00+34зсз3332100 0.0 10061553
15:00+37всв4325100 0.1 10052382
18:00+34в77270 0.0 10051091
21:00+26в595440 0.0 1007307
20 августа, сб
сб2000:00+23зсз1261100 1.1 100814
03:00+22зсз1166100 1.1 100815
06:00+22з3679100 0.0 1009175
09:00+27ссз2250100 0.0 1010752
12:00+33ююв3334100 0.0 10091497
15:00+35в121024100 0.0 10081837
18:00+29в10134052 0.0 1010969
21:00+25в8154859 0.0 1010711
21 августа, вс
вс2100:00+25в8144867 0.0 1010609
03:00+24вюв6125136 0.0 1010427
06:00+23вюв4958100 0.0 1011482
09:00+29вюв783782 0.0 10101103
12:00+34в13132593 0.0 10091818
15:00+32в131424100 0.0 10091603
18:00+27в101536100 0.0 10101073
21:00+22в814495 0.0 1011789